Location: Casteau
(50.5142°N, 4.0161°E)
Time: 01:37:03
(UTC+00:00)

Transit 2A - Pass Details

Date: 06 August 2021
Orbit: 594 x 964 km, 66.7° (Epoch: 21 September)

Event Time Altitude Azimuth Distance (km) Brightness Sun altitude
Rises 14:29:08 0° 314° (NW) 3,283 9.4 43.4°
Reaches altitude 10° 14:31:53 10° 300° (WNW) 2,415 9.0 43.1°
Maximum altitude 14:36:13 24° 249° (WSW) 1,732 9.5 42.5°
Drops below altitude 10° 14:40:50 10° 199° (SSW) 2,581 9.4 41.8°
Sets 14:43:54 0° 186° (S) 3,564 9.8 41.4°
